Tracking 30106 objects as of 23-Jan-2025
HD Live streaming from Space Station
objects crossing your sky now

GHOST-2

Track GHOST-2 now!
10-day predictions


NORAD ID: 56197
Int'l Code: 2023-054V
Perigee: 424.1 km
Apogee: 436.7 km
Inclination: 97.3 °
Period: 93.0 minutes
Semi major axis: 6801 km
RCS: Unknown
Launch date: April 15, 2023
Source: United States (US)
Launch site: AIR FORCE WESTERN TEST RANGE (AFWTR)
Your satellite tracking list
Your tracking list is empty




NASA's NSSDC Master Catalog

Two Line Element Set (TLE):
1 56197U 23054V   25023.09644799  .00042156  00000-0  81043-3 0  9999
2 56197  97.3398 285.9693 0009241  87.0558 273.1750 15.47769856 99876
Source of the keplerian elements: AFSPC